Location: Ceske Budejovice
(48.9830°N, 14.4670°E)
Time: 07:20:49
(UTC+02:00)

ISS - Pass Details

Date: 03 July 2022
Orbit: 412 x 420 km, 51.6° (Epoch: 18 August)

Event Time Altitude Azimuth Distance (km) Brightness Sun altitude
Exits shadow 03:17:10 21° 230° (SW) 1,014 -2.4 -12.4°
Maximum altitude 03:19:16 62° 154° (SSE) 475 -3.7 -12.2°
Drops below altitude 10° 03:22:36 10° 73° (ENE) 1,505 -0.2 -11.9°
Sets 03:24:43 0° 70° (ENE) 2,373 1.0 -11.7°
